Registrering Status Plassering
LN-FAW Operativ Kjeller 

Søk
Kontakt informasjon

Follo flyklubb.
Postboks 226, N-1401 Ski
Epost: post@follo-flyklubb.no

Tel: 47 25 54 90
Du er her: Hovedside

Velkommen til Follo flyklubb

 

Follo flyklubb er en flyklubb med primærbase på Ski flyplass, og sekundærbase (vinterbase) på Rakkestad flyplass. Disse websidene er ment som en informasjonskanal til flyklubbens medlemmer, og andre som måtte være interessert i Follo flyklubbs virksomhet. Har du kommentarer eller bidrag du ønsker å dele med flyklubben, send oss en melding her.

Har noen av flyklubbens medlemmer forslag til turer, aktiviteter eller kurs- og infokvelder dere ønsker at vi deltar på eller avholder, så gi beskjed til styret via epost.

 

Før flyturen: Ta en sjekk på datoer i sertifikatene dine. Husk at det er forskjell på gyldighetsdato for PPL-sertifikatet og klasserettighet, som f.eks. SEP. Her er noen nyttige spørsmål, og litt om rettigheter her.

ENGM 210320Z 17007KT CAVOK 03/M02 Q1014
ENTO 210320Z AUTO 21018KT 9999 OVC003/// 06/06 Q1016
ENRY 210320Z AUTO 19011KT 0400NDV R12/1300N R30/P2000N FG VV001 05/05 Q1017
ENSN 090850Z 20010G22KT 150V240 CAVOK 07/03 Q1000
ENCN 210320Z AUTO 22010KT 9999 OVC007/// 08/08 Q1019
ENZV 210250Z 20014KT 9999 BKN007 09/07 Q1019
ENFL 210320Z AUTO 23020KT 8000NDV -SHRA BKN006/// OVC008/// 08/08 Q1011
ENFG 220850Z 19007KT CAVOK 06/M03 Q1014
ENNO 201750Z VRB01KT CAVOK 05/M02 Q1021
 

Leie av LN-FAW

Follo flyklubbs medlemmer har anledning til å leie LN-FAW, booking skjer via MyWebLog. Husk å loggføre turen etter turen.